Location: Unspecified
(44.0704°N, 88.6889°W)
Time: 11:26:20
(UTC+02:00)

Altair - Pass Details

Date: 25 June 2019
Orbit: 1501 x 1683 km, 47.2° (Epoch: 24 July)

Event Time Altitude Azimuth Distance (km) Brightness Sun altitude
Rises 01:29:11 0° 203° (SSW) 4,648 10.2 20.9°
Reaches altitude 10° 01:32:31 10° 194° (SSW) 3,687 9.6 20.3°
Maximum altitude 01:40:35 34° 134° (SE) 2,347 8.2 18.9°
Drops below altitude 10° 01:48:55 10° 74° (ENE) 3,819 9.1 17.5°
Sets 01:52:25 0° 66° (ENE) 4,834 9.7 16.9°
